| time (UTC) | temp C | wind direction | speed KPH | gust KPH | rain 1hr cm | rain 24hr cm | rain mn cm | humidity % | barometer mb |
| 20260508005743 | 5 | 135 | 0.0 | 1.6 | 0.00 | 0.00 | 0.00 | 82 | 1028.3 |
| 20260507235743 | 5 | 135 | 1.6 | 4.8 | 0.00 | 0.00 | 0.00 | 43 | 1028.3 |
| 20260507232744 | 5 | 180 | 1.6 | 4.8 | 0.00 | 0.00 | 0.00 | 35 | 1028.3 |
| 20260507225745 | 5 | 225 | 1.6 | 4.8 | 0.00 | 0.00 | 0.00 | 17 | 1028.5 |
| 20260507222742 | 6 | 225 | 3.2 | 8.0 | 0.00 | 0.00 | 0.00 | 10 | 1028.3 |
| 20260507215745 | 6 | 225 | 3.2 | 8.0 | 0.00 | 0.00 | 0.00 | 10 | 1028.1 |
| 20260507212744 | 6 | 225 | 3.2 | 9.7 | 0.00 | 0.00 | 0.00 | 10 | 1028.0 |
| 20260507202742 | 7 | 270 | 4.8 | 9.7 | 0.00 | 0.00 | 0.00 | 10 | 1028.0 |
| 20260507195745 | 7 | 270 | 4.8 | 4.8 | 0.00 | 0.00 | 0.00 | 10 | 1027.6 |
| 20260507192746 | 8 | 270 | 4.8 | 9.7 | 0.00 | 0.00 | 0.00 | 10 | 1027.5 |
| 20260507182744 | 11 | 270 | 4.8 | 9.7 | 0.00 | 0.00 | 0.00 | 10 | 1027.0 |
| 20260507175744 | 11 | 360 | 4.8 | 11.3 | 0.00 | 0.00 | 0.00 | 10 | 1027.0 |
| 20260507172745 | 11 | 270 | 4.8 | 14.5 | 0.00 | 0.00 | 0.00 | 10 | 1027.1 |
| 20260507162743 | 11 | 360 | 8.0 | 14.5 | 0.00 | 0.00 | 0.00 | 10 | 1027.1 |
| 20260507155744 | 11 | 360 | 4.8 | 14.5 | 0.00 | 0.00 | 0.00 | 10 | 1027.0 |
| 20260507152743 | 11 | 360 | 8.0 | 14.5 | 0.00 | 0.00 | 0.00 | 10 | 1027.0 |
| 20260507145742 | 11 | 360 | 9.7 | 14.5 | 0.00 | 0.00 | 0.00 | 10 | 1027.1 |
| 20260507142745 | 10 | 315 | 11.3 | 19.3 | 0.00 | 0.00 | 0.00 | 10 | 1027.1 |
| 20260507135745 | 10 | 360 | 14.5 | 19.3 | 0.00 | 0.00 | 0.00 | 10 | 1027.1 |
| 20260507132741 | 11 | 360 | 9.7 | 19.3 | 0.00 | 0.00 | 0.00 | 10 | 1027.3 |
| 20260507125747 | 11 | 360 | 12.9 | 17.7 | 0.00 | 0.00 | 0.00 | 10 | 1027.3 |
| 20260507122744 | 10 | 270 | 11.3 | 16.1 | 0.00 | 0.00 | 0.00 | 10 | 1027.3 |
| 20260507115743 | 10 | 360 | 9.7 | 19.3 | 0.00 | 0.00 | 0.00 | 10 | 1027.1 |
| 20260507112742 | 10 | 360 | 12.9 | 19.3 | 0.00 | 0.00 | 0.00 | 10 | 1027.4 |
| 20260507105743 | 11 | 315 | 9.7 | 16.1 | 0.00 | 0.00 | 0.00 | 10 | 1027.4 |
| 20260507102744 | 11 | 360 | 6.4 | 12.9 | 0.00 | 0.00 | 0.00 | 10 | 1027.1 |
| 20260507095742 | 11 | 360 | 4.8 | 11.3 | 0.00 | 0.00 | 0.00 | 10 | 1027.4 |
| 20260507082743 | 11 | 360 | 3.2 | 9.7 | 0.00 | 0.00 | 0.00 | 10 | 1027.1 |
| 20260507072746 | 10 | 360 | 4.8 | 8.0 | 0.00 | 0.00 | 0.00 | 10 | 1027.0 |
| 20260507065744 | 10 | 45 | 1.6 | 9.7 | 0.00 | 0.00 | 0.00 | 10 | 1027.0 |
| 20260507062746 | 8 | 45 | 3.2 | 9.7 | 0.00 | 0.00 | 0.00 | 17 | 1026.9 |
| 20260507055743 | 6 | 90 | 1.6 | 9.7 | 0.00 | 0.00 | 0.00 | 55 | 1026.9 |
| 20260507052745 | 6 | 90 | 1.6 | 9.7 | 0.00 | 0.00 | 0.00 | 66 | 1026.8 |
| 20260507045742 | 6 | 90 | 1.6 | 9.7 | 0.00 | 0.00 | 0.00 | 81 | 1026.6 |
| 20260507035743 | 4 | 360 | 4.8 | 9.7 | 0.00 | 0.00 | 0.00 | 99 | 1026.5 |
| 20260507032743 | 4 | 360 | 4.8 | 8.0 | 0.00 | 0.00 | 0.00 | 99 | 1026.3 |
| 20260507022742 | 4 | 45 | 1.6 | 6.4 | 0.00 | 0.00 | 0.00 | 93 | 1026.0 |
| 20260507015744 | 4 | 45 | 0.0 | 4.8 | 0.00 | 0.00 | 0.00 | 92 | 1026.0 |
| 20260507012743 | 5 | 360 | 3.2 | 11.3 | 0.00 | 0.00 | 0.00 | 81 | 1026.0 |